N145NG VA88-VA88

Flight info

Callsign N145NG
Flight time 0h 52m
Altitude 1200
Route VFR
Aircraft EC45/L-G/C

Departure

Time 2026-05-07 11:46
Airport Sentara Norfolk General Hospital Heliport (VA88)

Arrival

Time 2026-05-07 12:38
Airport Sentara Norfolk General Hospital Heliport (VA88)
Time Latitude Longitude Altitude Speed Heading
2026-05-07 11:45 36.82443 -76.32216 797 ft 124 kts 195°
2026-05-07 11:46 36.81592 -76.32491 797 ft 129 kts 196°
2026-05-07 11:46 36.80718 -76.32789 798 ft 132 kts 197°
2026-05-07 11:46 36.79828 -76.33105 799 ft 134 kts 198°
2026-05-07 11:46 36.78930 -76.33432 799 ft 135 kts 198°
2026-05-07 11:47 36.78038 -76.33763 800 ft 135 kts 198°
2026-05-07 11:47 36.77133 -76.34103 800 ft 136 kts 198°
2026-05-07 11:47 36.76228 -76.34446 800 ft 136 kts 199°
2026-05-07 11:47 36.75324 -76.34792 799 ft 136 kts 199°
2026-05-07 11:48 36.74420 -76.35139 800 ft 136 kts 199°
2026-05-07 11:48 36.73514 -76.35489 800 ft 136 kts 199°
2026-05-07 11:48 36.72611 -76.35839 801 ft 136 kts 199°
2026-05-07 11:48 36.71708 -76.36189 800 ft 136 kts 199°
2026-05-07 11:49 36.70802 -76.36541 800 ft 136 kts 199°
2026-05-07 11:49 36.69897 -76.36893 799 ft 136 kts 199°
2026-05-07 11:49 36.68991 -76.37245 800 ft 136 kts 199°
2026-05-07 11:49 36.68085 -76.37597 800 ft 136 kts 199°
2026-05-07 11:50 36.67485 -76.37829 800 ft 136 kts 199°
2026-05-07 11:50 36.66580 -76.38180 800 ft 136 kts 199°
2026-05-07 11:50 36.65680 -76.38531 799 ft 136 kts 199°
2026-05-07 11:50 36.64480 -76.38998 800 ft 136 kts 199°
2026-05-07 11:51 36.63868 -76.39235 800 ft 136 kts 199°
2026-05-07 11:51 36.62963 -76.39586 800 ft 136 kts 199°
2026-05-07 11:51 36.62072 -76.39932 800 ft 136 kts 199°
2026-05-07 11:51 36.61170 -76.40283 799 ft 136 kts 199°
2026-05-07 11:52 36.60264 -76.40635 800 ft 136 kts 199°
2026-05-07 11:52 36.59360 -76.40985 801 ft 136 kts 199°
2026-05-07 11:52 36.58459 -76.41334 800 ft 135 kts 199°
2026-05-07 11:52 36.57557 -76.41683 800 ft 135 kts 199°
2026-05-07 11:53 36.56654 -76.42034 800 ft 136 kts 199°
2026-05-07 11:53 36.55751 -76.42385 800 ft 136 kts 199°
2026-05-07 11:53 36.54850 -76.42734 800 ft 136 kts 199°
2026-05-07 11:53 36.53947 -76.43083 800 ft 136 kts 199°
2026-05-07 11:54 36.53047 -76.43432 801 ft 135 kts 199°
2026-05-07 11:54 36.52149 -76.43779 800 ft 135 kts 199°
2026-05-07 11:54 36.51251 -76.44127 800 ft 135 kts 199°
2026-05-07 11:54 36.50352 -76.44475 800 ft 135 kts 199°
2026-05-07 11:55 36.49453 -76.44824 801 ft 135 kts 199°
2026-05-07 11:55 36.48551 -76.45172 800 ft 135 kts 199°
2026-05-07 11:55 36.47664 -76.45515 800 ft 135 kts 199°
2026-05-07 11:55 36.46767 -76.45862 799 ft 135 kts 199°
2026-05-07 11:56 36.45868 -76.46210 800 ft 135 kts 199°
2026-05-07 11:56 36.44969 -76.46558 800 ft 135 kts 199°
2026-05-07 11:56 36.44071 -76.46905 801 ft 135 kts 199°
2026-05-07 11:56 36.43175 -76.47250 800 ft 135 kts 199°
2026-05-07 11:57 36.42278 -76.47596 800 ft 135 kts 199°
2026-05-07 11:57 36.41380 -76.47944 800 ft 135 kts 199°
2026-05-07 11:57 36.40481 -76.48291 800 ft 135 kts 199°
2026-05-07 11:57 36.39583 -76.48637 801 ft 135 kts 199°
2026-05-07 11:58 36.38687 -76.48982 800 ft 135 kts 199°
2026-05-07 11:58 36.37792 -76.49326 800 ft 134 kts 199°
2026-05-07 11:58 36.36897 -76.49672 800 ft 135 kts 199°
2026-05-07 11:58 36.36002 -76.50018 800 ft 135 kts 199°
2026-05-07 11:59 36.35107 -76.50363 801 ft 135 kts 199°
2026-05-07 11:59 36.34222 -76.50704 800 ft 134 kts 199°
2026-05-07 11:59 36.33318 -76.51052 800 ft 134 kts 199°
2026-05-07 11:59 36.32424 -76.51395 800 ft 134 kts 199°
2026-05-07 12:00 36.31532 -76.51739 800 ft 134 kts 199°
2026-05-07 12:00 36.30639 -76.52083 800 ft 134 kts 199°
2026-05-07 12:00 36.29748 -76.52426 800 ft 134 kts 199°
2026-05-07 12:00 36.28870 -76.52764 800 ft 134 kts 199°
2026-05-07 12:01 36.27980 -76.53106 800 ft 134 kts 199°
2026-05-07 12:01 36.27089 -76.53449 800 ft 134 kts 199°
2026-05-07 12:01 36.26197 -76.53792 800 ft 134 kts 199°
2026-05-07 12:01 36.25305 -76.54136 801 ft 134 kts 199°
2026-05-07 12:02 36.24413 -76.54478 801 ft 134 kts 199°
2026-05-07 12:02 36.23524 -76.54819 800 ft 134 kts 199°
2026-05-07 12:02 36.22633 -76.55161 799 ft 134 kts 199°
2026-05-07 12:02 36.21746 -76.55503 799 ft 134 kts 199°
2026-05-07 12:03 36.20854 -76.55847 800 ft 134 kts 199°
2026-05-07 12:03 36.19960 -76.56190 800 ft 134 kts 199°
2026-05-07 12:03 36.19069 -76.56532 800 ft 134 kts 199°
2026-05-07 12:03 36.18176 -76.56875 800 ft 134 kts 199°
2026-05-07 12:04 36.17285 -76.57216 800 ft 134 kts 199°
2026-05-07 12:04 36.16393 -76.57558 801 ft 134 kts 199°
2026-05-07 12:04 36.15504 -76.57898 800 ft 134 kts 199°
2026-05-07 12:04 36.14616 -76.58238 800 ft 133 kts 199°
2026-05-07 12:05 36.13741 -76.58574 800 ft 133 kts 199°
2026-05-07 12:05 36.12854 -76.58914 801 ft 134 kts 199°
2026-05-07 12:05 36.11966 -76.59253 800 ft 133 kts 199°
2026-05-07 12:05 36.11079 -76.59593 800 ft 133 kts 199°
2026-05-07 12:06 36.10192 -76.59933 800 ft 133 kts 199°
2026-05-07 12:06 36.09305 -76.60272 801 ft 133 kts 199°
2026-05-07 12:06 36.08421 -76.60609 801 ft 133 kts 199°
2026-05-07 12:06 36.07541 -76.60945 778 ft 131 kts 198°
2026-05-07 12:07 36.06736 -76.61233 933 ft 105 kts 199°
2026-05-07 12:07 36.06115 -76.61458 1201 ft 80 kts 209°
2026-05-07 12:07 36.05771 -76.61971 1026 ft 74 kts 259°
2026-05-07 12:07 36.05864 -76.62494 696 ft 59 kts 316°
2026-05-07 12:08 36.06216 -76.62587 464 ft 55 kts 24°
2026-05-07 12:08 36.06456 -76.62238 332 ft 54 kts 58°
2026-05-07 12:08 36.06628 -76.61844 231 ft 48 kts 64°
2026-05-07 12:08 36.06761 -76.61501 128 ft 38 kts 65°
2026-05-07 12:09 36.06848 -76.61283 64 ft 17 kts 64°
2026-05-07 12:09 36.06879 -76.61221 37 ft 6 kts 69°
2026-05-07 12:09 36.06892 -76.61178 30 ft 5 kts 68°
2026-05-07 12:09 36.06897 -76.61156 27 ft 0 kts 59°
2026-05-07 12:14 36.06895 -76.61153 120 ft 1 kts 58°
2026-05-07 12:14 36.06946 -76.61103 164 ft 26 kts 53°
2026-05-07 12:14 36.07191 -76.60889 232 ft 61 kts 30°
2026-05-07 12:14 36.07646 -76.60650 529 ft 79 kts 15°
2026-05-07 12:15 36.08216 -76.60446 718 ft 91 kts 12°
2026-05-07 12:15 36.08864 -76.60221 872 ft 102 kts 13°
2026-05-07 12:15 36.09580 -76.59970 914 ft 113 kts 12°
2026-05-07 12:15 36.10368 -76.59692 906 ft 121 kts 13°
2026-05-07 12:16 36.11197 -76.59392 903 ft 126 kts 14°
2026-05-07 12:16 36.12037 -76.59083 900 ft 129 kts 15°
2026-05-07 12:16 36.12902 -76.58760 900 ft 131 kts 15°
2026-05-07 12:16 36.13775 -76.58432 899 ft 132 kts 15°
2026-05-07 12:17 36.14653 -76.58099 900 ft 132 kts 15°
2026-05-07 12:17 36.15538 -76.57763 900 ft 133 kts 15°
2026-05-07 12:17 36.16424 -76.57424 900 ft 133 kts 15°
2026-05-07 12:17 36.17312 -76.57085 900 ft 133 kts 15°
2026-05-07 12:18 36.18198 -76.56745 900 ft 133 kts 16°
2026-05-07 12:18 36.19083 -76.56406 900 ft 133 kts 15°
2026-05-07 12:18 36.19965 -76.56066 899 ft 133 kts 16°
2026-05-07 12:18 36.20850 -76.55724 900 ft 133 kts 15°
2026-05-07 12:19 36.21734 -76.55383 900 ft 133 kts 16°
2026-05-07 12:19 36.22610 -76.55044 900 ft 133 kts 16°
2026-05-07 12:19 36.23509 -76.54697 901 ft 134 kts 16°
2026-05-07 12:19 36.24388 -76.54358 901 ft 134 kts 15°
2026-05-07 12:20 36.25278 -76.54015 901 ft 133 kts 15°
2026-05-07 12:20 36.26165 -76.53674 899 ft 133 kts 15°
2026-05-07 12:20 36.27048 -76.53332 900 ft 133 kts 16°
2026-05-07 12:20 36.27931 -76.52990 900 ft 133 kts 15°
2026-05-07 12:21 36.28815 -76.52649 900 ft 133 kts 16°
2026-05-07 12:21 36.29699 -76.52307 900 ft 133 kts 16°
2026-05-07 12:21 36.30582 -76.51966 900 ft 133 kts 15°
2026-05-07 12:21 36.31463 -76.51626 900 ft 133 kts 15°
2026-05-07 12:22 36.32333 -76.51289 899 ft 133 kts 16°
2026-05-07 12:22 36.33226 -76.50942 900 ft 133 kts 16°
2026-05-07 12:22 36.34107 -76.50602 900 ft 133 kts 15°
2026-05-07 12:22 36.34977 -76.50265 900 ft 132 kts 16°
2026-05-07 12:23 36.35857 -76.49924 900 ft 132 kts 15°
2026-05-07 12:23 36.36737 -76.49584 899 ft 132 kts 16°
2026-05-07 12:23 36.37616 -76.49242 900 ft 132 kts 16°
2026-05-07 12:23 36.38495 -76.48901 900 ft 132 kts 16°
2026-05-07 12:24 36.39376 -76.48559 901 ft 133 kts 15°
2026-05-07 12:24 36.40256 -76.48219 901 ft 132 kts 15°
2026-05-07 12:24 36.41136 -76.47879 900 ft 132 kts 15°
2026-05-07 12:24 36.42010 -76.47539 899 ft 132 kts 16°
2026-05-07 12:25 36.42886 -76.47198 899 ft 132 kts 16°
2026-05-07 12:25 36.43765 -76.46855 901 ft 133 kts 16°
2026-05-07 12:25 36.44645 -76.46515 901 ft 132 kts 16°
2026-05-07 12:25 36.45523 -76.46175 900 ft 132 kts 15°
2026-05-07 12:26 36.46401 -76.45833 900 ft 132 kts 16°
2026-05-07 12:26 36.47268 -76.45495 899 ft 132 kts 16°
2026-05-07 12:26 36.48146 -76.45153 900 ft 132 kts 16°
2026-05-07 12:26 36.49027 -76.44811 900 ft 132 kts 16°
2026-05-07 12:27 36.49905 -76.44469 900 ft 132 kts 16°
2026-05-07 12:27 36.50784 -76.44128 899 ft 132 kts 16°
2026-05-07 12:27 36.51662 -76.43786 900 ft 132 kts 16°
2026-05-07 12:27 36.52540 -76.43444 900 ft 132 kts 16°
2026-05-07 12:28 36.53420 -76.43102 901 ft 132 kts 16°
2026-05-07 12:28 36.54297 -76.42761 900 ft 132 kts 16°
2026-05-07 12:28 36.55172 -76.42421 900 ft 132 kts 15°
2026-05-07 12:28 36.56048 -76.42080 899 ft 132 kts 15°
2026-05-07 12:29 36.56923 -76.41738 900 ft 132 kts 16°
2026-05-07 12:29 36.57798 -76.41397 900 ft 132 kts 16°
2026-05-07 12:29 36.58673 -76.41055 900 ft 132 kts 16°
2026-05-07 12:29 36.59539 -76.40717 900 ft 132 kts 16°
2026-05-07 12:30 36.60415 -76.40377 901 ft 132 kts 16°
2026-05-07 12:30 36.61289 -76.40038 899 ft 131 kts 16°
2026-05-07 12:30 36.62158 -76.39698 900 ft 131 kts 16°
2026-05-07 12:30 36.63031 -76.39356 900 ft 131 kts 16°
2026-05-07 12:31 36.63904 -76.39015 900 ft 131 kts 16°
2026-05-07 12:31 36.64780 -76.38674 900 ft 131 kts 15°
2026-05-07 12:31 36.65652 -76.38333 900 ft 131 kts 16°
2026-05-07 12:31 36.66526 -76.37990 900 ft 132 kts 16°
2026-05-07 12:32 36.67400 -76.37648 900 ft 132 kts 16°
2026-05-07 12:32 36.68277 -76.37305 901 ft 132 kts 16°
2026-05-07 12:32 36.69152 -76.36965 900 ft 131 kts 16°
2026-05-07 12:32 36.70022 -76.36625 900 ft 131 kts 16°
2026-05-07 12:33 36.71768 -76.35941 900 ft 131 kts 15°
2026-05-07 12:33 36.72628 -76.35605 901 ft 131 kts 16°
2026-05-07 12:33 36.73499 -76.35265 901 ft 131 kts 16°
2026-05-07 12:34 36.74369 -76.34926 900 ft 131 kts 16°
2026-05-07 12:34 36.75237 -76.34585 900 ft 131 kts 15°
2026-05-07 12:34 36.76107 -76.34245 900 ft 131 kts 15°
2026-05-07 12:34 36.76975 -76.33905 900 ft 131 kts 16°
2026-05-07 12:35 36.77842 -76.33567 900 ft 130 kts 16°
2026-05-07 12:35 36.78706 -76.33228 900 ft 130 kts 16°
2026-05-07 12:35 36.79565 -76.32892 911 ft 124 kts 15°
2026-05-07 12:35 36.80328 -76.32614 908 ft 106 kts 14°
2026-05-07 12:36 36.80996 -76.32395 905 ft 93 kts 13°
2026-05-07 12:36 36.81597 -76.32222 902 ft 87 kts 10°
2026-05-07 12:36 36.82183 -76.32075 901 ft 85 kts
2026-05-07 12:36 36.82760 -76.31950 901 ft 84 kts
2026-05-07 12:37 36.83337 -76.31847 901 ft 83 kts
2026-05-07 12:37 36.83715 -76.31785 901 ft 83 kts
2026-05-07 12:37 36.84269 -76.31642 835 ft 79 kts 13°
2026-05-07 12:37 36.84749 -76.31433 712 ft 66 kts 21°
2026-05-07 12:38 36.85126 -76.31206 556 ft 54 kts 30°
2026-05-07 12:38 36.85400 -76.30945 438 ft 45 kts 38°
2026-05-07 12:38 36.85631 -76.30722 358 ft 39 kts 31°
2026-05-07 12:38 36.85846 -76.30556 266 ft 33 kts 26°
2026-05-07 12:39 36.85996 -76.30452 178 ft 15 kts 26°
2026-05-07 12:39 36.86054 -76.30424 148 ft 7 kts 30°
2026-05-07 12:39 36.86098 -76.30395 138 ft 6 kts 30°
2026-05-07 12:39 36.86128 -76.30374 122 ft 4 kts 31°
2026-05-07 12:40 36.86142 -76.30363 107 ft 0 kts 28°
2026-05-07 12:40 36.86143 -76.30362 107 ft 1 kts 20°
2026-05-07 12:40 36.86144 -76.30362 107 ft 0 kts 27°